Location: Schommer Observatory
(40.5200°N, 74.4500°W)
Time: 14:37:08
(UTC-04:00)

N. Korean satellite - Visible Passes

Search period start: 15 October 2019 00:00
Search period end: 25 October 2019 00:00
Orbit: 455 x 508 km, 97.2° (Epoch: 14 October)

Date Brightness Start Highest point End Pass type
(mag) Time Alt. Az. Time Alt. Az. Time Alt. Az.
15 Oct 9.7 06:07:18 10° NE 06:10:00 20° E 06:12:43 10° SE visible
17 Oct 9.9 18:58:54 10° SW 19:01:13 17° W 19:03:34 10° NW visible
18 Oct 8.6 06:24:18 10° NNE 06:27:36 33° E 06:30:55 10° SSE visible
19 Oct 10.0 05:59:49 10° NE 06:02:11 16° E 06:04:34 10° SE visible
20 Oct 10.6 19:18:25 10° W 19:18:50 10° W 19:19:15 10° W visible
21 Oct 7.4 06:41:32 10° NNE 06:45:07 58° E 06:48:45 10° S visible
21 Oct 9.5 18:50:40 10° SSW 18:53:20 21° W 18:56:03 10° NW visible
22 Oct 9.1 06:16:37 10° NE 06:19:46 27° E 06:22:56 10° SSE visible
23 Oct 10.2 05:52:25 10° ENE 05:54:19 14° E 05:56:12 10° ESE visible
24 Oct 10.1 19:09:15 10° WSW 19:10:54 13° W 19:12:34 10° WNW visible
